| time (UTC) | temp F | wind direction | speed MPH | gust MPH | rain 1hr in | rain 24hr in | rain mn in | humidity % | barometer mb |
| 20260902060059 | 52 | 260 | 1.0 | 5.0 | 0.00 | 0.01 | 0.00 | 91 | 1014.8 |
| 20260902055542 | 52 | 191 | 0.0 | 4.0 | 0.00 | 0.01 | 0.00 | 91 | 1014.8 |
| 20260902055042 | 53 | 221 | 1.0 | 8.0 | 0.00 | 0.01 | 0.00 | 90 | 1014.8 |
| 20260902054543 | 53 | 222 | 3.0 | 8.0 | 0.00 | 0.01 | 0.00 | 89 | 1014.8 |
| 20260902054045 | 53 | 359 | 4.0 | 10.0 | 0.00 | 0.01 | 0.00 | 88 | 1014.8 |
| 20260902053540 | 53 | 192 | 4.0 | 8.0 | 0.00 | 0.01 | 0.00 | 87 | 1014.8 |
| 20260902053042 | 53 | 205 | 4.0 | 7.0 | 0.00 | 0.01 | 0.00 | 86 | 1014.8 |
| 20260902052539 | 53 | 222 | 4.0 | 9.0 | 0.00 | 0.01 | 0.00 | 86 | 1014.8 |
| 20260902052039 | 53 | 192 | 5.0 | 10.0 | 0.00 | 0.01 | 0.00 | 86 | 1015.0 |
| 20260902051541 | 53 | 193 | 4.0 | 11.0 | 0.00 | 0.01 | 0.00 | 88 | 1014.9 |
| 20260902051038 | 53 | 184 | 4.0 | 11.0 | 0.00 | 0.01 | 0.00 | 88 | 1014.9 |
| 20260902050037 | 54 | 359 | 5.0 | 11.0 | 0.00 | 0.01 | 0.00 | 90 | 1014.9 |
| 20260902045539 | 53 | 177 | 5.0 | 11.0 | 0.00 | 0.01 | 0.00 | 91 | 1014.9 |
| 20260902045036 | 54 | 193 | 4.0 | 11.0 | 0.00 | 0.01 | 0.00 | 91 | 1014.9 |
| 20260902044543 | 54 | 191 | 5.0 | 9.0 | 0.00 | 0.01 | 0.00 | 91 | 1015.0 |
| 20260902044036 | 54 | 210 | 4.0 | 9.0 | 0.00 | 0.01 | 0.00 | 90 | 1015.1 |
| 20260902043536 | 54 | 177 | 4.0 | 7.0 | 0.00 | 0.01 | 0.00 | 90 | 1015.0 |
| 20260902043037 | 54 | 197 | 5.0 | 8.0 | 0.00 | 0.01 | 0.00 | 91 | 1015.0 |
| 20260902042536 | 54 | 203 | 4.0 | 9.0 | 0.00 | 0.01 | 0.00 | 91 | 1014.9 |
| 20260902042036 | 54 | 192 | 4.0 | 11.0 | 0.00 | 0.01 | 0.00 | 91 | 1015.0 |
| 20260902041539 | 54 | 205 | 5.0 | 11.0 | 0.00 | 0.01 | 0.00 | 92 | 1015.1 |